date,time,SUV Intensity [MED/Hr],UV Index,Daily total [MED],Since Last [MED]
21/06/2023,23:58:05,-0.000,0.0,13.567,13.567
21/06/2023,23:59:04,-0.000,0.0,13.567,0.0
22/06/2023,00:00:04,0.000,0.0,0.0,-13.567
22/06/2023,00:01:04,-0.001,0.0,0.0,0.0
22/06/2023,00:02:04,0.000,0.0,0.0,0.0
22/06/2023,00:03:04,0.000,0.0,0.0,0.0
22/06/2023,00:04:04,0.000,0.0,0.0,0.0
22/06/2023,00:05:04,0.000,0.0,0.0,0.0
22/06/2023,00:06:05,0.000,0.0,0.0,0.0
22/06/2023,00:07:04,0.000,0.0,0.0,0.0
22/06/2023,00:08:04,0.000,0.0,0.0,0.0
22/06/2023,00:09:04,0.000,0.0,0.0,0.0
22/06/2023,00:10:04,0.000,0.0,0.0,0.0
22/06/2023,00:11:04,0.000,0.0,0.0,0.0
22/06/2023,00:12:04,0.000,0.0,0.0,0.0
22/06/2023,00:13:04,0.000,0.0,0.0,0.0
22/06/2023,00:14:04,0.000,0.0,0.0,0.0
22/06/2023,00:15:04,0.000,0.0,0.0,0.0
22/06/2023,00:16:04,0.000,0.0,0.0,0.0
22/06/2023,00:17:05,0.000,0.0,0.0,0.0
22/06/2023,00:18:04,0.000,0.0,0.0,0.0
22/06/2023,00:19:04,0.000,0.0,0.0,0.0
22/06/2023,00:20:04,0.000,0.0,0.0,0.0
22/06/2023,00:21:05,0.000,0.0,0.0,0.0
22/06/2023,00:22:04,0.000,0.0,0.0,0.0
22/06/2023,00:23:04,0.000,0.0,0.0,0.0
22/06/2023,00:24:04,0.000,0.0,0.0,0.0
22/06/2023,00:25:04,0.000,0.0,0.0,0.0
22/06/2023,00:26:04,0.000,0.0,0.0,0.0
22/06/2023,00:27:04,0.000,0.0,0.0,0.0
22/06/2023,00:28:03,0.000,0.0,0.0,0.0
22/06/2023,00:29:04,0.000,0.0,0.0,0.0
22/06/2023,00:30:04,0.000,0.0,0.0,0.0
22/06/2023,00:31:04,0.000,0.0,0.0,0.0
22/06/2023,00:32:04,0.000,0.0,0.0,0.0
22/06/2023,00:33:04,0.000,0.0,0.0,0.0
22/06/2023,00:34:05,0.000,0.0,0.0,0.0
22/06/2023,00:35:05,0.000,0.0,0.0,0.0
22/06/2023,00:36:04,0.000,0.0,0.0,0.0
22/06/2023,00:37:04,0.000,0.0,0.0,0.0
22/06/2023,00:38:04,0.000,0.0,0.0,0.0
22/06/2023,00:39:04,0.000,0.0,0.0,0.0
22/06/2023,00:40:04,0.000,0.0,0.0,0.0
22/06/2023,00:41:04,0.000,0.0,0.0,0.0
22/06/2023,00:42:05,0.000,0.0,0.0,0.0
22/06/2023,00:43:04,0.000,0.0,0.0,0.0
22/06/2023,00:44:04,0.000,0.0,0.0,0.0
22/06/2023,00:45:05,0.000,0.0,0.0,0.0
22/06/2023,00:46:04,0.000,0.0,0.0,0.0
22/06/2023,00:47:05,0.000,0.0,0.0,0.0
22/06/2023,00:48:04,0.000,0.0,0.0,0.0
22/06/2023,00:49:04,0.000,0.0,0.0,0.0
22/06/2023,00:50:05,0.000,0.0,0.0,0.0
22/06/2023,00:51:04,0.000,0.0,0.0,0.0
22/06/2023,00:52:04,0.000,0.0,0.0,0.0
22/06/2023,00:53:05,0.000,0.0,0.0,0.0
22/06/2023,00:54:05,0.000,0.0,0.0,0.0
22/06/2023,00:55:04,0.000,0.0,0.0,0.0
22/06/2023,00:56:05,0.000,0.0,0.0,0.0
22/06/2023,00:57:04,0.000,0.0,0.0,0.0
22/06/2023,00:58:04,0.000,0.0,0.0,0.0
22/06/2023,00:59:04,0.000,0.0,0.0,0.0
22/06/2023,01:00:05,0.000,0.0,0.0,0.0
22/06/2023,01:01:05,0.000,0.0,0.0,0.0
22/06/2023,01:02:04,0.000,0.0,0.0,0.0
22/06/2023,01:03:04,0.000,0.0,0.0,0.0
22/06/2023,01:04:04,0.000,0.0,0.0,0.0
22/06/2023,01:05:04,0.000,0.0,0.0,0.0
22/06/2023,01:06:33,0.000,0.0,0.0,0.0
22/06/2023,01:08:04,0.000,0.0,0.0,0.0
22/06/2023,01:09:04,0.000,0.0,0.0,0.0
22/06/2023,01:10:04,0.000,0.0,0.0,0.0
22/06/2023,01:11:04,0.000,0.0,0.0,0.0
22/06/2023,01:12:05,0.000,0.0,0.0,0.0
22/06/2023,01:13:05,0.000,0.0,0.0,0.0
22/06/2023,01:14:05,0.000,0.0,0.0,0.0
22/06/2023,01:15:04,0.000,0.0,0.0,0.0
22/06/2023,01:16:05,0.000,0.0,0.0,0.0
22/06/2023,01:17:05,0.000,0.0,0.0,0.0
22/06/2023,01:18:04,0.000,0.0,0.0,0.0
22/06/2023,01:19:05,0.000,0.0,0.0,0.0
22/06/2023,01:20:04,0.000,0.0,0.0,0.0
22/06/2023,01:21:05,0.000,0.0,0.0,0.0
22/06/2023,01:22:04,0.000,0.0,0.0,0.0
22/06/2023,01:23:05,0.000,0.0,0.0,0.0
22/06/2023,01:24:04,0.000,0.0,0.0,0.0
22/06/2023,01:25:04,0.000,0.0,0.0,0.0
22/06/2023,01:26:05,0.000,0.0,0.0,0.0
22/06/2023,01:27:04,0.001,0.0,0.0,0.0
22/06/2023,01:28:05,0.000,0.0,0.0,0.0
22/06/2023,01:29:04,0.000,0.0,0.0,0.0
22/06/2023,01:30:04,0.000,0.0,0.0,0.0
22/06/2023,01:31:05,0.000,0.0,0.0,0.0
22/06/2023,01:32:04,0.000,0.0,0.0,0.0
22/06/2023,01:33:05,0.000,0.0,0.0,0.0
22/06/2023,01:34:05,0.000,0.0,0.0,0.0
22/06/2023,01:35:04,0.000,0.0,0.0,0.0
22/06/2023,01:36:05,0.000,0.0,0.0,0.0
22/06/2023,01:37:04,0.001,0.0,0.0,0.0
22/06/2023,01:38:04,0.001,0.0,0.0,0.0
22/06/2023,01:39:05,0.000,0.0,0.0,0.0
22/06/2023,01:40:04,0.000,0.0,0.0,0.0
22/06/2023,01:41:04,0.001,0.0,0.0,0.0
22/06/2023,01:42:05,0.001,0.0,0.0,0.0
22/06/2023,01:43:05,0.000,0.0,0.0,0.0
22/06/2023,01:44:04,0.001,0.0,0.0,0.0
22/06/2023,01:45:05,0.001,0.0,0.0,0.0
22/06/2023,01:46:04,0.001,0.0,0.0,0.0
22/06/2023,01:47:05,0.001,0.0,0.0,0.0
22/06/2023,01:48:04,0.001,0.0,0.0,0.0
22/06/2023,01:49:04,0.001,0.0,0.0,0.0
22/06/2023,01:50:05,0.000,0.0,0.0,0.0
22/06/2023,01:51:05,0.000,0.0,0.0,0.0
22/06/2023,01:52:04,0.000,0.0,0.0,0.0
22/06/2023,01:53:05,0.000,0.0,0.0,0.0
22/06/2023,01:54:05,0.001,0.0,0.0,0.0
22/06/2023,01:55:04,0.001,0.0,0.0,0.0
22/06/2023,01:56:05,0.000,0.0,0.0,0.0
22/06/2023,01:57:05,0.001,0.0,0.0,0.0
22/06/2023,01:58:04,0.000,0.0,0.0,0.0
22/06/2023,01:59:05,0.001,0.0,0.0,0.0
22/06/2023,02:00:05,0.001,0.0,0.0,0.0
22/06/2023,02:01:05,0.001,0.0,0.0,0.0
22/06/2023,02:02:05,0.001,0.0,0.0,0.0
22/06/2023,02:03:04,0.000,0.0,0.0,0.0
22/06/2023,02:04:04,0.001,0.0,0.0,0.0
22/06/2023,02:05:05,0.001,0.0,0.0,0.0
22/06/2023,02:06:04,0.000,0.0,0.0,0.0
22/06/2023,02:07:04,0.001,0.0,0.0,0.0
22/06/2023,02:08:04,0.000,0.0,0.0,0.0
22/06/2023,02:09:05,0.001,0.0,0.0,0.0
22/06/2023,02:10:04,0.001,0.0,0.0,0.0
22/06/2023,02:11:05,0.001,0.0,0.0,0.0
22/06/2023,02:12:05,0.001,0.0,0.0,0.0
22/06/2023,02:13:05,0.002,0.0,0.0,0.0
22/06/2023,02:14:03,0.000,0.0,0.0,0.0
22/06/2023,02:15:04,0.000,0.0,0.0,0.0
22/06/2023,02:16:04,0.001,0.0,0.0,0.0
22/06/2023,02:17:04,0.001,0.0,0.0,0.0
22/06/2023,02:18:05,0.001,0.0,0.0,0.0
22/06/2023,02:19:05,0.001,0.0,0.0,0.0
22/06/2023,02:20:05,0.001,0.0,0.0,0.0
22/06/2023,02:21:04,0.001,0.0,0.0,0.0
22/06/2023,02:22:05,0.001,0.0,0.0,0.0
22/06/2023,02:23:05,0.001,0.0,0.0,0.0
22/06/2023,02:24:04,0.000,0.0,0.0,0.0
22/06/2023,02:25:04,0.001,0.0,0.0,0.0
22/06/2023,02:26:04,0.001,0.0,0.0,0.0
22/06/2023,02:27:05,0.001,0.0,0.0,0.0
22/06/2023,02:28:05,0.001,0.0,0.0,0.0
22/06/2023,02:29:04,0.000,0.0,0.0,0.0
22/06/2023,02:30:04,0.001,0.0,0.0,0.0
22/06/2023,02:31:05,0.001,0.0,0.0,0.0
22/06/2023,02:32:04,0.001,0.0,0.0,0.0
22/06/2023,02:33:05,0.001,0.0,0.0,0.0
22/06/2023,02:34:04,0.000,0.0,0.0,0.0
22/06/2023,02:35:05,0.000,0.0,0.0,0.0
22/06/2023,02:36:04,0.000,0.0,0.0,0.0
22/06/2023,02:37:05,0.000,0.0,0.0,0.0
22/06/2023,02:38:05,0.000,0.0,0.0,0.0
22/06/2023,02:39:05,0.000,0.0,0.0,0.0
22/06/2023,02:40:05,0.000,0.0,0.0,0.0
22/06/2023,02:41:04,0.000,0.0,0.0,0.0
22/06/2023,02:42:04,0.001,0.0,0.0,0.0
22/06/2023,02:43:04,0.002,0.0,0.0,0.0
22/06/2023,02:44:05,0.000,0.0,0.0,0.0
22/06/2023,02:45:04,0.001,0.0,0.0,0.0
22/06/2023,02:46:04,0.001,0.0,0.0,0.0
22/06/2023,02:47:04,0.000,0.0,0.0,0.0
22/06/2023,02:48:04,0.001,0.0,0.0,0.0
22/06/2023,02:49:04,0.001,0.0,0.0,0.0
22/06/2023,02:50:05,0.001,0.0,0.0,0.0
22/06/2023,02:51:04,0.001,0.0,0.0,0.0
22/06/2023,02:52:05,0.001,0.0,0.0,0.0
22/06/2023,02:53:05,0.001,0.0,0.0,0.0
22/06/2023,02:54:04,0.001,0.0,0.0,0.0
22/06/2023,02:55:05,0.000,0.0,0.0,0.0
22/06/2023,02:56:04,0.001,0.0,0.0,0.0
22/06/2023,02:57:05,0.001,0.0,0.0,0.0
22/06/2023,02:58:05,0.001,0.0,0.0,0.0
22/06/2023,02:59:05,0.001,0.0,0.0,0.0
22/06/2023,03:00:04,0.001,0.0,0.0,0.0
22/06/2023,03:01:05,0.001,0.0,0.0,0.0
22/06/2023,03:02:05,0.002,0.0,0.0,0.0
22/06/2023,03:03:04,0.001,0.0,0.0,0.0
22/06/2023,03:04:05,0.001,0.0,0.0,0.0
22/06/2023,03:05:05,0.000,0.0,0.0,0.0
22/06/2023,03:06:05,0.002,0.0,0.0,0.0
22/06/2023,03:07:04,0.001,0.0,0.0,0.0
22/06/2023,03:08:04,0.001,0.0,0.0,0.0
22/06/2023,03:09:05,0.001,0.0,0.0,0.0
22/06/2023,03:10:05,0.000,0.0,0.0,0.0
22/06/2023,03:11:04,0.001,0.0,0.0,0.0
22/06/2023,03:12:04,0.001,0.0,0.0,0.0
22/06/2023,03:13:05,0.001,0.0,0.0,0.0
22/06/2023,03:14:05,0.001,0.0,0.0,0.0
22/06/2023,03:15:03,0.001,0.0,0.0,0.0
22/06/2023,03:16:27,0.001,0.0,0.0,0.0
22/06/2023,03:18:05,0.000,0.0,0.0,0.0
22/06/2023,03:19:05,0.001,0.0,0.0,0.0
22/06/2023,03:20:04,0.001,0.0,0.0,0.0
22/06/2023,03:21:05,0.001,0.0,0.0,0.0
22/06/2023,03:22:05,0.001,0.0,0.0,0.0
22/06/2023,03:23:04,0.001,0.0,0.0,0.0
22/06/2023,03:24:05,0.001,0.0,0.0,0.0
22/06/2023,03:25:04,0.001,0.0,0.0,0.0
22/06/2023,03:26:05,0.001,0.0,0.0,0.0
22/06/2023,03:27:04,0.001,0.0,0.0,0.0
22/06/2023,03:28:05,0.002,0.0,0.0,0.0
22/06/2023,03:29:05,0.002,0.0,0.0,0.0
22/06/2023,03:30:04,0.001,0.0,0.0,0.0
22/06/2023,03:31:05,0.002,0.0,0.0,0.0
22/06/2023,03:32:05,0.002,0.0,0.0,0.0
22/06/2023,03:33:05,0.001,0.0,0.0,0.0
22/06/2023,03:34:05,0.001,0.0,0.0,0.0
22/06/2023,03:35:05,0.002,0.0,0.0,0.0
22/06/2023,03:36:05,0.002,0.0,0.0,0.0
22/06/2023,03:37:04,0.002,0.0,0.0,0.0
22/06/2023,03:38:04,0.002,0.0,0.0,0.0
22/06/2023,03:39:05,0.002,0.0,0.0,0.0
22/06/2023,03:40:05,0.002,0.0,0.0,0.0
22/06/2023,03:41:05,0.001,0.0,0.0,0.0
22/06/2023,03:42:04,0.003,0.0,0.0,0.0
22/06/2023,03:43:05,0.002,0.0,0.0,0.0
22/06/2023,03:44:05,0.003,0.0,0.0,0.0
22/06/2023,03:45:05,0.003,0.0,0.0,0.0
22/06/2023,03:46:05,0.003,0.0,0.0,0.0
22/06/2023,03:47:04,0.003,0.0,0.0,0.0
22/06/2023,03:48:05,0.003,0.0,0.0,0.0
22/06/2023,03:49:05,0.004,0.0,0.0,0.0
22/06/2023,03:50:04,0.004,0.0,0.0,0.0
22/06/2023,03:51:05,0.004,0.0,0.0,0.0
22/06/2023,03:52:04,0.004,0.0,0.0,0.0
22/06/2023,03:53:05,0.004,0.0,0.0,0.0
22/06/2023,03:54:04,0.004,0.0,0.0,0.0
22/06/2023,03:55:05,0.005,0.0,0.0,0.0
22/06/2023,03:56:05,0.005,0.0,0.0,0.0
22/06/2023,03:57:05,0.005,0.0,0.0,0.0
22/06/2023,03:58:04,0.005,0.0,0.0,0.0
22/06/2023,03:59:05,0.005,0.0,0.0,0.0
22/06/2023,04:00:04,0.006,0.0,0.0,0.0
22/06/2023,04:01:05,0.006,0.0,0.0,0.0
22/06/2023,04:02:05,0.006,0.0,0.0,0.0
22/06/2023,04:03:04,0.006,0.0,0.0,0.0
22/06/2023,04:04:05,0.007,0.0,0.0,0.0
22/06/2023,04:05:05,0.007,0.0,0.0,0.0
22/06/2023,04:06:04,0.007,0.0,0.0,0.0
22/06/2023,04:07:05,0.007,0.0,0.001,0.001
22/06/2023,04:08:05,0.007,0.0,0.001,0.0
22/06/2023,04:09:05,0.008,0.0,0.001,0.0
22/06/2023,04:10:04,0.008,0.0,0.001,0.0
22/06/2023,04:11:05,0.009,0.0,0.001,0.0
22/06/2023,04:12:04,0.009,0.0,0.001,0.0
22/06/2023,04:13:05,0.009,0.0,0.001,0.0
22/06/2023,04:14:05,0.009,0.0,0.002,0.001
22/06/2023,04:15:05,0.009,0.0,0.002,0.0
22/06/2023,04:16:04,0.010,0.0,0.002,0.0
22/06/2023,04:17:05,0.009,0.0,0.002,0.0
22/06/2023,04:18:04,0.011,0.0,0.002,0.0
22/06/2023,04:19:05,0.012,0.0,0.002,0.0
22/06/2023,04:20:05,0.011,0.0,0.003,0.001
22/06/2023,04:21:05,0.012,0.0,0.003,0.0
22/06/2023,04:22:04,0.012,0.0,0.003,0.0
22/06/2023,04:23:05,0.012,0.0,0.003,0.0
22/06/2023,04:24:04,0.013,0.0,0.003,0.0
22/06/2023,04:25:05,0.013,0.0,0.004,0.001
22/06/2023,04:26:04,0.013,0.0,0.004,0.0
22/06/2023,04:27:05,0.014,0.0,0.004,0.0
22/06/2023,04:28:04,0.015,0.0,0.004,0.0
22/06/2023,04:29:05,0.016,0.0,0.005,0.001
22/06/2023,04:30:04,0.015,0.0,0.005,0.0
22/06/2023,04:31:05,0.017,0.0,0.005,0.0
22/06/2023,04:32:05,0.016,0.0,0.005,0.0
22/06/2023,04:33:04,0.017,0.0,0.006,0.001
22/06/2023,04:34:05,0.018,0.0,0.006,0.0
22/06/2023,04:35:05,0.018,0.0,0.006,0.0
22/06/2023,04:36:04,0.019,0.0,0.007,0.001
22/06/2023,04:37:05,0.020,0.0,0.007,0.0
22/06/2023,04:38:04,0.020,0.0,0.007,0.0
22/06/2023,04:39:05,0.021,0.0,0.008,0.001
22/06/2023,04:40:04,0.021,0.0,0.008,0.0
22/06/2023,04:41:05,0.021,0.0,0.008,0.0
22/06/2023,04:42:05,0.023,0.0,0.009,0.001
22/06/2023,04:43:04,0.023,0.0,0.009,0.0
22/06/2023,04:44:05,0.024,0.0,0.009,0.0
22/06/2023,04:45:04,0.024,0.0,0.01,0.001
22/06/2023,04:46:05,0.025,0.0,0.01,0.0
22/06/2023,04:47:05,0.026,0.0,0.011,0.001
22/06/2023,04:48:05,0.026,0.0,0.011,0.0
22/06/2023,04:49:05,0.028,0.0,0.012,0.001
22/06/2023,04:50:05,0.028,0.0,0.012,0.0
22/06/2023,04:51:04,0.029,0.0,0.012,0.0
22/06/2023,04:52:05,0.030,0.0,0.013,0.001
22/06/2023,04:53:05,0.030,0.0,0.013,0.0
22/06/2023,04:54:04,0.032,0.0,0.014,0.001
22/06/2023,04:55:05,0.031,0.0,0.014,0.0
22/06/2023,04:56:04,0.032,0.0,0.015,0.001
22/06/2023,04:57:05,0.032,0.0,0.016,0.001
22/06/2023,04:58:04,0.034,0.0,0.016,0.0
22/06/2023,04:59:05,0.036,0.0,0.017,0.001
22/06/2023,05:00:05,0.035,0.0,0.017,0.0
22/06/2023,05:01:04,0.036,0.0,0.018,0.001
22/06/2023,05:02:05,0.036,0.0,0.018,0.0
22/06/2023,05:03:04,0.037,0.0,0.019,0.001
22/06/2023,05:04:05,0.037,0.0,0.02,0.001
22/06/2023,05:05:05,0.038,0.0,0.02,0.0
22/06/2023,05:06:05,0.039,0.0,0.021,0.001
22/06/2023,05:07:05,0.041,0.0,0.022,0.001
22/06/2023,05:08:05,0.042,0.0,0.022,0.0
22/06/2023,05:09:04,0.042,0.0,0.023,0.001
22/06/2023,05:10:05,0.043,0.0,0.024,0.001
22/06/2023,05:11:04,0.045,0.0,0.024,0.0
22/06/2023,05:12:05,0.045,0.0,0.025,0.001
22/06/2023,05:13:04,0.047,0.0,0.026,0.001
22/06/2023,05:14:05,0.047,0.0,0.027,0.001
22/06/2023,05:15:05,0.049,0.0,0.028,0.001
22/06/2023,05:16:04,0.050,0.0,0.028,0.0
22/06/2023,05:17:05,0.052,0.0,0.029,0.001
22/06/2023,05:18:05,0.053,0.0,0.03,0.001
22/06/2023,05:19:05,0.055,0.0,0.031,0.001
22/06/2023,05:20:05,0.056,0.0,0.032,0.001
22/06/2023,05:21:05,0.058,0.0,0.033,0.001
22/06/2023,05:22:05,0.059,0.0,0.034,0.001
22/06/2023,05:23:05,0.061,0.0,0.035,0.001
22/06/2023,05:24:04,0.062,0.0,0.036,0.001
22/06/2023,05:25:05,0.063,0.0,0.037,0.001
22/06/2023,05:26:05,0.065,0.0,0.038,0.001
22/06/2023,05:27:04,0.066,0.0,0.039,0.001
22/06/2023,05:28:05,0.067,0.0,0.04,0.001
22/06/2023,05:29:04,0.069,0.0,0.041,0.001
22/06/2023,05:30:05,0.070,0.0,0.042,0.001
22/06/2023,05:31:05,0.072,0.0,0.044,0.002
22/06/2023,05:32:05,0.075,0.0,0.045,0.001
22/06/2023,05:33:05,0.076,0.0,0.046,0.001
22/06/2023,05:34:04,0.077,0.0,0.047,0.001
22/06/2023,05:35:05,0.078,0.0,0.049,0.002
22/06/2023,05:36:05,0.079,0.0,0.05,0.001
22/06/2023,05:37:05,0.080,0.0,0.051,0.001
22/06/2023,05:38:04,0.082,0.0,0.053,0.002
22/06/2023,05:39:05,0.084,0.0,0.054,0.001
22/06/2023,05:40:04,0.085,0.0,0.056,0.002
22/06/2023,05:41:05,0.087,0.0,0.057,0.001
22/06/2023,05:42:04,0.089,0.0,0.058,0.001
22/06/2023,05:43:05,0.090,0.0,0.06,0.002
22/06/2023,05:44:04,0.092,0.0,0.061,0.001
22/06/2023,05:45:05,0.093,0.0,0.063,0.002
22/06/2023,05:46:05,0.095,0.0,0.065,0.002
22/06/2023,05:47:05,0.096,0.0,0.066,0.001
22/06/2023,05:48:05,0.098,0.0,0.068,0.002
22/06/2023,05:49:05,0.099,0.0,0.069,0.001
22/06/2023,05:50:04,0.101,0.0,0.071,0.002
22/06/2023,05:51:05,0.101,0.0,0.073,0.002
22/06/2023,05:52:05,0.104,0.0,0.074,0.001
22/06/2023,05:53:05,0.105,0.0,0.076,0.002
22/06/2023,05:54:05,0.106,0.0,0.078,0.002
22/06/2023,05:55:04,0.109,0.0,0.08,0.002
22/06/2023,05:56:04,0.110,0.0,0.082,0.002
22/06/2023,05:57:05,0.112,0.0,0.083,0.001
22/06/2023,05:58:05,0.114,0.0,0.085,0.002
22/06/2023,05:59:04,0.116,0.0,0.087,0.002
22/06/2023,06:00:05,0.117,0.0,0.089,0.002
22/06/2023,06:01:04,0.120,0.0,0.091,0.002
22/06/2023,06:02:05,0.121,0.0,0.093,0.002
22/06/2023,06:03:04,0.123,0.0,0.095,0.002
22/06/2023,06:04:05,0.125,0.0,0.097,0.002
22/06/2023,06:05:04,0.127,0.0,0.099,0.002
22/06/2023,06:06:05,0.129,0.0,0.101,0.002
22/06/2023,06:07:05,0.130,0.0,0.104,0.003
22/06/2023,06:08:05,0.132,0.0,0.106,0.002
22/06/2023,06:09:05,0.134,0.0,0.108,0.002
22/06/2023,06:10:05,0.136,0.0,0.11,0.002
22/06/2023,06:11:05,0.139,0.0,0.113,0.003
22/06/2023,06:12:05,0.142,0.0,0.115,0.002
22/06/2023,06:13:05,0.144,0.0,0.117,0.002
22/06/2023,06:14:05,0.147,0.0,0.12,0.003
22/06/2023,06:15:04,0.147,0.0,0.122,0.002
22/06/2023,06:16:05,0.150,0.0,0.125,0.003
22/06/2023,06:17:04,0.152,0.0,0.127,0.002
22/06/2023,06:18:04,0.155,0.0,0.13,0.003
22/06/2023,06:19:04,0.157,0.0,0.132,0.002
22/06/2023,06:20:05,0.159,0.0,0.135,0.003
22/06/2023,06:21:05,0.162,0.0,0.137,0.002
22/06/2023,06:22:04,0.165,0.0,0.14,0.003
22/06/2023,06:23:05,0.168,0.0,0.143,0.003
22/06/2023,06:24:05,0.172,0.0,0.146,0.003
22/06/2023,06:25:05,0.177,0.0,0.149,0.003
22/06/2023,06:26:05,0.182,0.0,0.152,0.003
22/06/2023,06:27:05,0.188,0.0,0.155,0.003
22/06/2023,06:28:04,0.194,0.0,0.158,0.003
22/06/2023,06:29:04,0.201,0.0,0.161,0.003
22/06/2023,06:30:04,0.205,0.0,0.165,0.004
22/06/2023,06:31:05,0.205,0.0,0.168,0.003
22/06/2023,06:32:05,0.209,0.0,0.171,0.003
22/06/2023,06:33:05,0.211,0.0,0.175,0.004
22/06/2023,06:34:05,0.220,1.0,0.179,0.004
22/06/2023,06:35:06,0.230,1.0,0.182,0.003
22/06/2023,06:36:05,0.238,1.0,0.186,0.004
22/06/2023,06:37:05,0.241,1.0,0.19,0.004
22/06/2023,06:38:05,0.247,1.0,0.194,0.004
22/06/2023,06:39:05,0.251,1.0,0.198,0.004
22/06/2023,06:40:05,0.254,1.0,0.203,0.005
22/06/2023,06:41:05,0.238,1.0,0.207,0.004
22/06/2023,06:42:05,0.242,1.0,0.211,0.004
22/06/2023,06:43:05,0.267,1.0,0.215,0.004
22/06/2023,06:44:05,0.274,1.0,0.22,0.005
22/06/2023,06:45:04,0.279,1.0,0.224,0.004
22/06/2023,06:46:05,0.283,1.0,0.229,0.005
22/06/2023,06:47:05,0.288,1.0,0.234,0.005
22/06/2023,06:48:04,0.287,1.0,0.238,0.004
22/06/2023,06:49:05,0.298,1.0,0.243,0.005
22/06/2023,06:50:05,0.298,1.0,0.248,0.005
22/06/2023,06:51:05,0.292,1.0,0.253,0.005
22/06/2023,06:52:05,0.305,1.0,0.258,0.005
22/06/2023,06:53:05,0.316,1.0,0.263,0.005
22/06/2023,06:54:05,0.322,1.0,0.269,0.006
22/06/2023,06:55:05,0.327,1.0,0.274,0.005
22/06/2023,06:56:05,0.339,1.0,0.279,0.005
22/06/2023,06:57:05,0.345,1.0,0.285,0.006
22/06/2023,06:58:05,0.350,1.0,0.291,0.006
22/06/2023,06:59:05,0.355,1.0,0.297,0.006
22/06/2023,07:00:05,0.362,1.0,0.303,0.006
22/06/2023,07:01:05,0.367,1.0,0.309,0.006
22/06/2023,07:02:04,0.372,1.0,0.315,0.006
22/06/2023,07:03:05,0.377,1.0,0.321,0.006
22/06/2023,07:04:05,0.385,1.0,0.328,0.007
22/06/2023,07:05:05,0.390,1.0,0.334,0.006
22/06/2023,07:06:05,0.393,1.0,0.341,0.007
22/06/2023,07:07:05,0.397,1.0,0.347,0.006
22/06/2023,07:08:05,0.403,1.0,0.354,0.007
22/06/2023,07:09:05,0.408,1.0,0.361,0.007
22/06/2023,07:10:05,0.412,1.0,0.367,0.006
22/06/2023,07:11:05,0.417,1.0,0.374,0.007
22/06/2023,07:12:05,0.422,1.0,0.381,0.007
22/06/2023,07:13:04,0.428,1.0,0.388,0.007
22/06/2023,07:14:05,0.433,1.0,0.396,0.008
22/06/2023,07:15:05,0.439,1.0,0.403,0.007
22/06/2023,07:16:05,0.448,1.0,0.41,0.007
22/06/2023,07:17:04,0.454,1.0,0.418,0.008
22/06/2023,07:18:05,0.399,1.0,0.425,0.007
22/06/2023,07:19:05,0.404,1.0,0.432,0.007
22/06/2023,07:20:05,0.435,1.0,0.439,0.007
22/06/2023,07:21:05,0.472,1.0,0.446,0.007
22/06/2023,07:22:05,0.458,1.0,0.454,0.008
22/06/2023,07:23:05,0.479,1.0,0.462,0.008
22/06/2023,07:24:05,0.479,1.0,0.47,0.008
22/06/2023,07:25:05,0.495,1.0,0.478,0.008
22/06/2023,07:26:05,0.458,1.0,0.486,0.008
22/06/2023,07:27:05,0.428,1.0,0.493,0.007
22/06/2023,07:28:05,0.429,1.0,0.5,0.007
22/06/2023,07:29:05,0.430,1.0,0.507,0.007
22/06/2023,07:30:05,0.474,1.0,0.515,0.008
22/06/2023,07:31:06,0.530,1.0,0.523,0.008
22/06/2023,07:32:05,0.539,1.0,0.532,0.009
22/06/2023,07:33:04,0.547,1.0,0.541,0.009
22/06/2023,07:34:05,0.555,1.0,0.55,0.009
22/06/2023,07:35:05,0.566,1.0,0.56,0.01
22/06/2023,07:36:05,0.576,1.0,0.569,0.009
22/06/2023,07:37:05,0.585,1.0,0.579,0.01
22/06/2023,07:38:05,0.590,1.0,0.589,0.01
22/06/2023,07:39:05,0.598,1.0,0.599,0.01
22/06/2023,07:40:05,0.606,1.0,0.609,0.01
22/06/2023,07:41:04,0.611,1.0,0.619,0.01
22/06/2023,07:42:05,0.618,1.0,0.629,0.01
22/06/2023,07:43:05,0.625,1.0,0.639,0.01
22/06/2023,07:44:04,0.633,1.0,0.65,0.011
22/06/2023,07:45:05,0.641,1.0,0.66,0.01
22/06/2023,07:46:05,0.647,1.0,0.672,0.012
22/06/2023,07:47:05,0.655,2.0,0.682,0.01
22/06/2023,07:48:05,0.661,2.0,0.693,0.011
22/06/2023,07:49:05,0.664,2.0,0.704,0.011
22/06/2023,07:50:04,0.674,2.0,0.715,0.011
22/06/2023,07:51:05,0.685,2.0,0.727,0.012
22/06/2023,07:52:05,0.694,2.0,0.738,0.011
22/06/2023,07:53:05,0.701,2.0,0.75,0.012
22/06/2023,07:54:05,0.710,2.0,0.761,0.011
22/06/2023,07:55:05,0.714,2.0,0.774,0.013
22/06/2023,07:56:05,0.723,2.0,0.785,0.011
22/06/2023,07:57:05,0.696,2.0,0.797,0.012
22/06/2023,07:58:05,0.700,2.0,0.809,0.012
22/06/2023,07:59:05,0.717,2.0,0.821,0.012
22/06/2023,08:00:05,0.758,2.0,0.834,0.013
22/06/2023,08:01:05,0.768,2.0,0.846,0.012
22/06/2023,08:02:04,0.763,2.0,0.859,0.013
22/06/2023,08:03:05,0.781,2.0,0.872,0.013
22/06/2023,08:04:05,0.777,2.0,0.885,0.013
22/06/2023,08:05:05,0.701,2.0,0.897,0.012
22/06/2023,08:06:05,0.804,2.0,0.91,0.013
22/06/2023,08:07:05,0.802,2.0,0.923,0.013
22/06/2023,08:08:05,0.812,2.0,0.936,0.013
22/06/2023,08:09:05,0.825,2.0,0.95,0.014
22/06/2023,08:10:04,0.836,2.0,0.964,0.014
22/06/2023,08:11:05,0.845,2.0,0.978,0.014
22/06/2023,08:12:05,0.853,2.0,0.992,0.014
22/06/2023,08:13:05,0.863,2.0,1.006,0.014
22/06/2023,08:14:05,0.860,2.0,1.021,0.015
22/06/2023,08:15:05,0.870,2.0,1.035,0.014
22/06/2023,08:16:04,0.876,2.0,1.049,0.014
22/06/2023,08:17:05,0.887,2.0,1.064,0.015
22/06/2023,08:18:05,0.900,2.0,1.079,0.015
22/06/2023,08:19:05,0.913,2.0,1.095,0.016
22/06/2023,08:20:05,0.928,2.0,1.11,0.015
22/06/2023,08:21:05,0.934,2.0,1.125,0.015
22/06/2023,08:22:05,0.941,2.0,1.141,0.016
22/06/2023,08:23:05,0.958,2.0,1.156,0.015
22/06/2023,08:24:05,0.948,2.0,1.172,0.016
22/06/2023,08:25:05,0.964,2.0,1.187,0.015
22/06/2023,08:26:05,0.973,2.0,1.204,0.017
22/06/2023,08:27:05,0.980,2.0,1.22,0.016
22/06/2023,08:28:05,0.988,2.0,1.237,0.017
22/06/2023,08:29:05,0.996,2.0,1.253,0.016
22/06/2023,08:30:05,1.005,2.0,1.27,0.017
22/06/2023,08:31:05,1.010,2.0,1.286,0.016
22/06/2023,08:32:05,1.014,2.0,1.304,0.018
22/06/2023,08:33:05,1.015,2.0,1.32,0.016
22/06/2023,08:34:05,1.029,2.0,1.337,0.017
22/06/2023,08:35:05,1.038,2.0,1.355,0.018
22/06/2023,08:36:05,1.050,2.0,1.372,0.017
22/06/2023,08:37:05,1.064,2.0,1.389,0.017
22/06/2023,08:38:05,1.072,2.0,1.408,0.019
22/06/2023,08:39:05,1.083,2.0,1.425,0.017
22/06/2023,08:40:06,1.093,3.0,1.444,0.019
22/06/2023,08:41:05,1.102,3.0,1.461,0.017
22/06/2023,08:42:05,1.112,3.0,1.481,0.02
22/06/2023,08:43:05,1.118,3.0,1.498,0.017
22/06/2023,08:44:05,1.128,3.0,1.518,0.02
22/06/2023,08:45:05,1.133,3.0,1.536,0.018
22/06/2023,08:46:05,1.145,3.0,1.555,0.019
22/06/2023,08:47:05,1.153,3.0,1.574,0.019
22/06/2023,08:48:05,1.163,3.0,1.594,0.02
22/06/2023,08:49:05,1.172,3.0,1.614,0.02
22/06/2023,08:50:06,1.182,3.0,1.633,0.019
22/06/2023,08:51:05,1.191,3.0,1.652,0.019
22/06/2023,08:52:05,1.200,3.0,1.673,0.021
22/06/2023,08:53:06,1.208,3.0,1.693,0.02
22/06/2023,08:54:05,1.221,3.0,1.713,0.02
22/06/2023,08:55:05,1.228,3.0,1.733,0.02
22/06/2023,08:56:05,1.231,3.0,1.754,0.021
22/06/2023,08:57:05,1.244,3.0,1.774,0.02
22/06/2023,08:58:05,1.256,3.0,1.795,0.021
22/06/2023,08:59:05,1.263,3.0,1.817,0.022
22/06/2023,09:00:05,1.272,3.0,1.837,0.02
22/06/2023,09:01:05,1.276,3.0,1.859,0.022
22/06/2023,09:02:05,1.290,3.0,1.88,0.021
22/06/2023,09:03:05,1.300,3.0,1.901,0.021
22/06/2023,09:04:05,1.307,3.0,1.923,0.022
22/06/2023,09:05:05,1.321,3.0,1.946,0.023
22/06/2023,09:06:05,1.328,3.0,1.967,0.021
22/06/2023,09:07:05,1.338,3.0,1.99,0.023
22/06/2023,09:08:05,1.349,3.0,2.011,0.021
22/06/2023,09:09:05,1.364,3.0,2.035,0.024
22/06/2023,09:10:05,1.378,3.0,2.057,0.022
22/06/2023,09:11:05,1.390,3.0,2.081,0.024
22/06/2023,09:12:05,1.395,3.0,2.103,0.022
22/06/2023,09:13:05,1.405,3.0,2.127,0.024
22/06/2023,09:14:05,1.413,3.0,2.15,0.023
22/06/2023,09:15:06,1.410,3.0,2.174,0.024
22/06/2023,09:16:05,1.421,3.0,2.197,0.023
22/06/2023,09:17:05,1.436,3.0,2.222,0.025
22/06/2023,09:18:05,1.019,2.0,2.241,0.019
22/06/2023,09:19:05,0.915,2.0,2.256,0.015
22/06/2023,09:20:05,1.405,3.0,2.273,0.017
22/06/2023,09:21:05,1.461,3.0,2.296,0.023
22/06/2023,09:22:05,1.489,3.0,2.322,0.026
22/06/2023,09:23:05,1.508,3.0,2.346,0.024
22/06/2023,09:24:06,1.516,3.0,2.372,0.026
22/06/2023,09:25:05,1.506,3.0,2.396,0.024
22/06/2023,09:26:05,1.507,3.0,2.422,0.026
22/06/2023,09:27:06,0.919,2.0,2.441,0.019
22/06/2023,09:28:05,0.894,2.0,2.455,0.014
22/06/2023,09:29:05,0.879,2.0,2.47,0.015
22/06/2023,09:30:05,0.866,2.0,2.485,0.015
22/06/2023,09:31:06,0.874,2.0,2.499,0.014
22/06/2023,09:32:05,0.892,2.0,2.514,0.015
22/06/2023,09:33:05,0.930,2.0,2.529,0.015
22/06/2023,09:34:05,1.514,3.0,2.548,0.019
22/06/2023,09:35:05,1.324,3.0,2.571,0.023
22/06/2023,09:36:06,1.033,2.0,2.59,0.019
22/06/2023,09:37:05,1.099,3.0,2.608,0.018
22/06/2023,09:38:05,1.629,4.0,2.631,0.023
22/06/2023,09:39:05,1.652,4.0,2.659,0.028
22/06/2023,09:40:05,1.675,4.0,2.686,0.027
22/06/2023,09:41:06,1.686,4.0,2.715,0.029
22/06/2023,09:42:05,1.693,4.0,2.742,0.027
22/06/2023,09:43:05,1.691,4.0,2.771,0.029
22/06/2023,09:44:05,1.702,4.0,2.798,0.027
22/06/2023,09:45:05,1.702,4.0,2.828,0.03
22/06/2023,09:46:05,1.704,4.0,2.855,0.027
22/06/2023,09:47:05,1.695,4.0,2.885,0.03
22/06/2023,09:48:05,1.687,4.0,2.912,0.027
22/06/2023,09:49:06,1.711,4.0,2.941,0.029
22/06/2023,09:50:05,1.130,3.0,2.966,0.025
22/06/2023,09:51:05,1.304,3.0,2.985,0.019
22/06/2023,09:52:05,1.750,4.0,3.01,0.025
22/06/2023,09:53:05,1.684,4.0,3.04,0.03
22/06/2023,09:54:05,1.728,4.0,3.066,0.026
22/06/2023,09:55:06,1.509,3.0,3.094,0.028